{"data":{"norad_id":67656,"epoch":"2026-05-25T01:53:57.765120Z","epoch_age_seconds":74994,"freshness":"FRESH","line1":"1 67656U 26022J   26145.07914080  .00020720  00000+0  64214-3 0  9999","line2":"2 67656  97.2858 178.4004 0001462 115.6223 244.5171 15.33456707 17281","mean_motion":15.33456707,"eccentricity":0.0001462,"inclination_deg":97.2858,"raan_deg":178.4004,"arg_perigee_deg":115.6223,"mean_anomaly_deg":244.5171,"bstar":0.00064214,"rev_number":1728,"period_min":93.905487740646,"perigee_km":464.50780195517,"apogee_km":466.50888385344,"semimajor_km":6843.6453429043,"source":"CELESTRAK","updated_at":"2026-05-25T13:38:21.658063Z"}}